Wind_Speed
32 32 30 23 21 22 23 22 18 5 8 16 13 30 42 40 39 36 35 37 36 35 35 37 34 31 30 27 25 24 19 22 26 23 22 21 17 12
31 30 30 26 22 22 24 25 23 20 6 23 21 23 35 44 44 38 35 36 37 36 37 36 36 35 33 29 27 25 24 27 28 26 23 20 16 13
29 28 28 27 24 22 24 24 21 23 14 13 25 30 30 37 46 42 40 37 37 36 38 37 36 35 36 33 31 30 30 35 32 27 21 17 12 9
28 27 27 24 25 23 22 22 24 23 24 18 22 29 32 35 42 44 42 39 37 36 37 38 38 38 38 36 35 35 36 39 32 24 21 15 13 11
24 26 25 23 22 21 23 23 24 25 27 25 17 27 27 30 33 35 37 35 34 35 34 37 38 37 37 37 37 40 40 35 28 23 17 14 13 11
22 23 24 24 21 21 24 26 26 27 28 27 18 20 23 26 28 30 27 26 26 25 27 30 33 35 37 40 42 41 37 31 23 17 16 15 12 11
22 23 22 21 20 22 20 19 18 20 22 23 16 18 18 17 29 28 20 32 26 26 33 33 38 38 37 40 35 30 22 19 17 16 15 14 12 13
21 21 20 21 21 22 23 24 24 23 23 22 22 21 27 29 30 32 28 19 7 28 29 32 32 35 31 27 25 21 18 16 15 14 15 14 14 13
18 17 17 17 17 20 21 24 28 31 35 34 24 26 27 36 38 33 33 31 14 33 31 18 24 26 24 21 18 19 18 16 16 16 14 13 12 11
15 15 16 15 16 19 20 22 23 23 25 31 36 36 43 41 49 49 42 28 18 35 31 8 23 18 21 19 18 18 18 18 15 14 14 12 11 11
15 15 15 16 17 17 16 16 15 16 17 23 26 26 39 39 44 33 30 28 8 18 30 13 21 18 19 19 17 17 18 17 17 14 13 10 9 7
16 15 16 16 16 17 12 9 10 10 8 6 2 12 20 27 33 37 37 31 14 6 30 15 26 16 8 18 19 18 16 17 14 15 13 9 8 7
15 11 9 10 11 11 6 7 7 6 6 12 16 19 24 27 22 21 31 23 17 5 29 28 22 20 9 10 20 20 20 17 12 12 10 9 10 10
11 6 2 2 3 6 8 6 7 9 10 15 17 17 18 19 15 16 19 18 17 7 29 26 15 26 16 11 10 22 18 18 14 11 9 10 12 11
13 16 13 10 9 8 9 8 11 10 14 19 19 18 17 20 20 20 18 17 18 20 24 13 17 28 23 17 15 20 18 14 14 9 9 8 7 7
13 11 12 11 11 12 11 8 8 9 16 22 22 20 19 21 22 22 28 29 33 26 17 14 17 23 19 18 18 21 15 7 11 8 8 7 7 7
14 14 16 15 16 16 15 14 14 14 20 22 25 23 22 24 24 23 22 25 25 23 26 25 23 23 22 20 20 17 14 12 9 6 4 4 5 5
17 18 19 19 19 18 18 18 20 20 22 24 23 24 22 23 24 25 26 25 25 23 23 23 26 27 25 24 15 14 11 10 6 4 2 2 3 3
20 18 19 20 18 18 20 19 22 22 22 26 24 26 26 21 23 24 25 24 23 20 17 15 12 11 12 7 9 11 10 7 5 3 0 2 5 6
19 18 17 17 15 14 14 15 18 21 22 22 23 23 24 23 20 21 19 20 21 18 17 12 11 9 12 7 8 8 8 6 4 2 2 4 7 7
18 18 17 16 16 17 17 17 20 22 23 22 21 19 18 20 19 19 20 20 19 16 17 15 15 16 17 14 14 10 6 6 4 3 4 5 5 4
17 17 17 17 16 17 18 21 22 23 23 19 17 17 18 22 21 19 17 17 16 16 16 13 10 9 10 11 11 7 5 5 4 3 1 0 3 4
16 18 19 18 17 17 17 18 16 14 15 15 15 16 17 18 17 17 16 15 14 14 13 13 12 12 12 11 10 8 6 6 6 5 1 6 6 8
Wind_Direction
216 221 224 225 233 234 231 225 224 215 217 220 210 222 226 228 231 234 234 233 230 229 227 227 226 227 231 233 230 223 215 209 203 213 218 226 225 230
216 219 225 226 231 231 229 228 226 229 237 215 223 226 227 228 233 229 233 237 231 229 230 229 228 225 231 231 230 227 220 214 213 217 224 231 221 232
214 220 225 234 228 227 228 226 225 224 234 231 216 227 224 225 229 228 220 229 234 228 229 228 228 226 229 229 227 224 222 214 212 218 220 214 208 182
213 219 227 225 224 228 226 232 233 230 231 236 219 219 222 223 229 224 223 226 227 231 227 226 224 222 224 224 222 220 217 215 215 218 211 222 192 175
221 222 222 218 227 231 230 236 236 237 233 236 209 212 214 218 214 216 214 220 224 228 225 224 226 221 220 218 217 216 215 208 206 200 200 199 191 179
212 218 221 222 231 235 240 244 243 243 238 227 198 199 205 210 204 191 181 195 197 205 203 203 207 207 210 210 209 203 202 202 200 200 196 186 185 185
224 230 235 243 243 235 235 243 244 241 235 232 214 195 188 179 193 191 174 176 170 177 177 175 180 179 176 181 185 185 187 193 194 186 181 172 180 184
224 227 236 243 248 253 256 256 255 256 254 251 233 203 204 205 189 186 165 153 160 180 159 166 181 176 178 183 183 181 185 185 180 169 168 172 181 186
231 235 239 243 250 257 260 266 264 262 258 255 257 217 209 205 194 182 184 174 165 173 174 148 185 174 180 181 180 177 170 163 158 166 174 178 175 178
235 236 240 243 252 257 261 267 274 272 263 261 256 248 225 214 208 199 186 161 158 171 177 133 175 173 177 176 173 169 161 162 162 164 169 179 178 192
230 229 235 245 254 260 271 278 279 275 273 284 288 263 225 218 201 182 165 158 136 175 184 152 163 145 165 170 175 171 169 162 177 185 169 169 182 194
223 229 238 241 250 263 270 266 265 277 285 282 188 185 193 183 182 195 184 176 143 126 188 153 151 147 137 177 174 180 173 182 179 168 163 176 185 183
217 220 238 245 245 252 250 253 252 237 168 129 124 137 154 164 171 183 186 189 172 130 181 177 168 150 117 139 174 184 179 174 171 176 176 190 195 193
186 177 174 225 204 220 217 214 205 185 160 128 123 116 125 136 146 165 181 185 191 220 169 186 154 160 133 123 141 178 176 184 177 165 166 183 205 216
122 119 118 111 120 129 136 158 161 161 138 121 111 107 114 119 122 123 128 140 125 132 160 162 168 162 153 142 145 157 148 170 171 172 185 197 211 226
105 95 88 85 87 98 105 99 107 132 130 123 111 116 120 117 112 117 114 105 105 99 106 113 137 151 123 129 139 140 144 147 164 178 183 204 234 249
99 87 84 79 77 74 83 89 93 105 103 107 111 107 103 107 103 110 107 101 99 96 95 106 110 106 101 111 115 120 121 123 151 168 190 226 245 252
88 80 71 71 72 71 71 73 90 89 100 102 97 96 90 92 92 92 95 94 96 94 96 102 107 105 95 78 86 116 119 125 132 144 170 246 255 257
79 77 73 73 72 79 88 86 83 92 105 99 96 99 99 93 94 93 94 96 92 95 98 107 104 108 112 102 86 90 116 116 117 113 144 279 293 297
72 76 77 80 78 75 79 88 92 96 96 95 95 95 97 98 95 94 99 103 104 102 97 90 83 100 117 121 122 94 101 101 90 61 5 323 300 312
67 70 75 79 83 89 89 89 98 98 100 98 95 95 101 105 101 102 103 105 105 103 95 85 87 102 105 106 107 118 76 64 55 16 334 328 328 321
72 76 74 75 77 85 92 96 97 101 101 101 104 106 106 108 103 104 106 105 101 103 103 103 92 93 95 108 104 107 85 40 34 360 2 203 314 312
72 75 79 81 81 84 89 92 92 94 98 100 102 105 108 104 104 103 104 103 107 108 109 103 92 90 89 93 97 89 60 37 27 29 13 334 300 287
Height
766 770 775 778 782 784 786 788 790 792 794 796 799 799 802 804 808 813 817 819 825 829 833 837 840 844 846 849 851 852 854 856 858 860 861 863 864 864
760 764 768 772 775 777 780 782 783 785 786 788 789 791 793 796 800 804 806 812 816 820 825 829 833 836 840 843 845 847 849 851 853 855 857 858 861 859
753 757 761 765 767 770 773 775 777 780 780 782 782 785 787 789 790 796 797 802 807 811 816 821 825 829 834 836 839 841 843 844 846 849 852 854 858 859
746 751 755 758 761 764 767 769 770 772 773 774 776 778 779 780 784 784 789 793 798 803 808 813 816 819 825 829 831 834 836 837 838 843 845 847 853 855
741 745 748 753 755 758 761 762 763 765 766 767 766 770 772 774 777 779 782 787 790 794 799 804 810 812 817 821 824 827 829 831 835 839 843 845 850 852
737 740 744 747 749 752 755 755 757 758 758 757 757 761 765 768 771 773 774 780 784 788 790 797 803 806 810 814 817 820 823 826 830 835 838 842 848 851
732 734 737 740 744 746 747 749 750 749 749 751 749 754 756 760 762 765 770 771 780 785 785 793 796 799 805 808 813 816 822 824 829 830 836 839 844 849
728 730 733 736 738 740 741 742 744 745 744 743 741 741 744 747 752 757 761 769 779 779 783 789 795 795 801 809 812 816 819 822 826 830 833 837 842 846
725 726 728 730 733 734 734 734 734 736 736 736 734 731 734 733 738 746 749 751 760 766 779 786 796 797 802 808 812 814 817 821 825 831 833 837 841 845
721 722 724 725 727 729 729 727 725 726 725 725 724 723 721 724 725 728 737 744 755 767 774 782 790 796 802 807 811 814 815 820 825 830 832 837 840 843
717 718 720 721 723 724 723 722 720 719 719 717 712 710 713 716 720 729 738 743 757 764 770 774 785 794 800 806 811 814 816 820 824 828 831 837 840 842
713 715 716 717 719 720 719 718 717 718 716 713 708 709 712 717 723 727 731 735 743 758 763 770 780 785 799 806 810 814 817 821 823 827 832 835 838 842
710 712 713 714 715 716 716 717 717 718 717 713 713 715 717 721 724 728 733 736 739 743 747 758 770 778 787 798 807 812 815 820 823 827 830 833 837 840
710 712 713 715 713 716 715 715 717 719 718 715 717 721 724 723 727 730 734 737 741 744 748 756 761 768 779 794 802 810 815 818 823 827 830 833 835 836
712 712 714 716 716 715 716 717 718 721 719 718 723 727 729 729 731 733 736 738 743 749 755 760 761 768 776 785 796 805 812 818 822 825 829 832 835 835
716 717 717 720 719 719 721 723 723 725 722 722 727 732 735 735 737 739 739 744 746 755 762 766 768 774 780 788 794 804 810 815 821 826 827 828 831 832
719 721 719 722 724 725 725 727 729 731 729 731 733 736 739 741 743 746 748 750 756 763 769 773 778 782 788 795 800 806 812 816 822 825 827 827 827 828
722 725 727 729 730 733 734 735 734 736 736 736 740 742 746 748 750 754 756 760 765 772 777 781 784 789 795 802 807 810 814 817 821 823 824 825 825 825
729 733 733 734 739 741 740 742 742 744 746 744 749 749 751 758 759 761 765 769 774 779 784 788 792 795 798 804 813 814 817 819 821 822 823 824 823 823
739 741 742 743 745 748 750 750 749 750 752 755 756 758 760 763 768 768 774 779 782 785 788 792 796 799 801 805 811 818 818 820 821 821 822 821 820 819
749 749 749 752 752 752 755 757 757 758 759 762 765 768 770 771 774 777 781 785 787 791 795 799 801 803 804 809 813 819 821 820 820 821 821 820 819 818
757 757 757 758 760 759 761 763 767 768 768 770 773 774 777 777 780 783 787 790 794 797 800 804 806 808 809 811 816 818 820 820 820 821 820 821 821 818
766 762 760 765 768 769 770 770 774 777 777 778 781 782 783 784 787 790 792 796 799 801 804 806 808 811 813 815 817 820 821 822 821 822 822 820 819 817